[[{"header":{"parameterUnit":"m.s-1","parameterCategory":1,"la1":30.2991,"la2":30.254,"lo1":-89.0895,"lo2":-89.0444,"dy":0.0017,"dx":0.0017,"nx":28,"ny":28,"refTime":"2023-08-16T21:00:00:Z","depth":0,"parameterNumber":2,"parameterNumberName":"U-component_of_WINDS"},"data":[0,0,0,0,0,0,0,0,0,0,0,0,0,0,0,0,0,0,0,0,0,0,0,0,0,0,0,0,0,0,0,0,0,0,0,0,0,0,0,0,0,0,0,0,0,0,0,0,0,0,0,0,0,0,0,0,0,0,1.3294,1.3295,0,1.3411,1.3412,1.3413,1.344,1.3439,1.3439,1.3438,1.3559,1.3563,1.3567,0,0,0,0,0,0,0,0,0,0,0,0,0,1.3095,1.3099,1.3294,1.3295,1.3297,1.341,1.3412,1.3414,1.344,1.3439,1.3438,1.3437,1.3557,1.3562,1.3567,0,0,0,0,0,0,0,0,0,0,0,0,0,1.3194,1.31,1.3294,1.3324,1.3328,1.341,1.3412,1.3414,1.3441,1.3439,1.3438,1.3437,1.3556,1.3562,1.3568,1.3629,0,0,1.3586,1.3588,0,0,0,0,0,0,0,0,1.3188,1.3201,1.3318,1.3322,1.3326,1.341,1.3386,1.3486,1.3441,1.3398,1.3438,1.3436,1.351,1.352,1.3544,1.3634,1.364,1.3586,1.359,1.3593,1.3594,0,0,0,0,0,0,0,1.3181,1.3196,1.334,1.332,1.3325,1.3332,1.3345,1.3405,1.3459,1.3401,1.3404,1.3417,1.3512,1.3539,1.3547,1.3641,1.3586,1.3591,1.3595,1.3598,1.3787,1.3788,0,0,0,0,0,0,1.3169,1.319,1.3336,1.3344,1.3253,1.3336,1.3351,1.3384,1.3459,1.3469,1.3418,1.3418,1.3529,1.3541,1.3552,1.3627,1.3592,1.3598,1.3602,1.3785,1.3787,1.3788,0,0,0,0,0,0,1.3165,1.3182,1.3332,1.3268,1.3287,1.3341,1.3379,1.3387,1.3413,1.3471,1.3481,1.3435,1.3529,1.3543,1.3609,1.3632,1.3601,1.3606,1.3783,1.3786,1.3788,1.3779,0,0,0,0,0,0,1.3159,1.318,1.3204,1.3268,1.3291,1.3387,1.338,1.339,1.3423,1.3424,1.349,1.3499,1.3529,1.36,1.3615,1.364,1.3611,1.3782,1.3784,1.3787,1.3778,1.3781,1.3784,0,0,0,0,0,1.3152,1.3197,1.3205,1.3222,1.3321,1.3388,1.3401,1.3433,1.3425,1.3449,1.3486,1.3497,1.3627,1.3607,1.3624,1.365,1.378,1.3784,1.3787,1.3777,1.378,1.3784,0,0,0,0,0,0,1.3134,1.3206,1.3215,1.3283,1.3329,1.3392,1.3423,1.3436,1.3486,1.3485,1.3524,1.3538,1.3601,1.3633,1.3608,1.3713,1.3704,1.371,1.369,1.3694,1.3697,1.3688,1.3616,0,0,0,0,0,1.3138,1.3186,1.3247,1.33,1.3323,1.3369,1.34,1.3421,1.347,1.349,1.3532,1.358,1.3632,1.3665,1.3716,1.3783,1.3797,1.381,1.3813,1.3815,1.382,1.3857,1.3863,1.3799,1.3799,1.3799,0,0,1.3147,1.3192,1.322,1.3298,1.3336,1.3385,1.3385,1.3437,1.3474,1.3498,1.3562,1.3595,1.3651,1.3717,1.3749,1.3746,1.3841,1.3819,1.382,1.3825,1.3861,1.3867,1.3873,1.3801,1.3801,1.3801,0,0,1.3188,1.3227,1.3276,1.3314,1.3372,1.3402,1.3414,1.3475,1.3498,1.3563,1.3581,1.3626,1.3714,1.3753,1.3785,1.384,1.3852,1.3856,1.3871,1.3907,1.3912,1.3916,1.3935,1.3941,1.3861,1.3861,1.3861,0,1.3191,1.3265,1.3299,1.335,1.3383,1.3407,1.3457,1.3492,1.3564,1.3586,1.3582,1.3693,1.3733,1.3808,1.3821,1.3846,1.3861,1.3848,1.3908,1.3913,1.3918,1.3936,1.3943,1.3861,1.3861,1.3861,1.3861,0,1.3267,1.3318,1.335,1.3418,1.3455,1.3505,1.3547,1.358,1.3598,1.3629,1.3695,1.3743,1.3804,1.3824,1.3842,1.3902,1.3898,1.39,1.3891,1.3923,1.3941,1.3949,1.3861,1.3861,1.3861,1.3861,0,0,1.3299,1.3385,1.3396,1.3426,1.3492,1.3532,1.3584,1.3642,1.367,1.3719,1.3762,1.3837,1.3839,1.3875,1.3898,1.3929,1.3969,1.3928,1.393,1.3933,1.4037,1.4033,1.4041,1.3977,1.3979,1.398,1.4031,0,1.3347,1.3438,1.347,1.3545,1.3593,1.3616,1.366,1.3705,1.3736,1.3781,1.3815,1.3866,1.3866,1.3888,1.392,1.3957,1.399,1.3954,1.4018,1.402,1.4002,1.4051,1.4048,1.4094,1.4039,1.404,1.4041,0,1.3414,1.3463,1.3543,1.3602,1.3623,1.3663,1.3719,1.3762,1.3813,1.3833,1.3873,1.3893,1.3948,1.3936,1.4012,1.3986,1.4015,1.4037,1.4039,1.4046,1.4031,1.4057,1.4109,1.4116,1.4052,1.4052,1.4051,0,1.3428,1.3514,1.3573,1.3599,1.367,1.3697,1.3727,1.3778,1.3811,1.3861,1.3882,1.3938,1.3968,1.401,1.4045,1.4034,1.4117,1.4109,1.4135,1.4134,1.4151,1.4149,1.4207,1.4171,1.4171,1.417,1.417,0,1.3477,1.3525,1.358,1.3616,1.367,1.3707,1.376,1.3792,1.3837,1.3879,1.3904,1.3943,1.3988,1.4033,1.4061,1.4119,1.4133,1.415,1.4157,1.4147,1.4145,1.4166,1.4163,1.4172,1.4172,1.4172,1.4171,0,1.3502,1.3541,1.3606,1.3668,1.3684,1.3721,1.3774,1.381,1.3842,1.3895,1.391,1.396,1.4015,1.4054,1.4125,1.4144,1.4205,1.4213,1.4188,1.4191,1.4214,1.4211,1.4287,1.4298,1.4255,1.4255,1.4256,0,1.353,1.3567,1.3633,1.3663,1.3693,1.3742,1.3775,1.3813,1.3847,1.3909,1.3937,1.3994,1.4041,1.4127,1.417,1.4224,1.4232,1.4255,1.4241,1.423,1.4231,1.4228,1.4232,1.4257,1.4257,1.4257,1.4257,0,1.3576,1.3593,1.364,1.3695,1.3734,1.3779,1.3824,1.3847,1.3893,1.393,1.3986,1.4023,1.4095,1.415,1.4209,1.4241,1.4257,1.4262,1.427,1.4261,1.4244,1.4252,1.4192,1.426,1.4259,1.4259,1.4259,1.4259,1.3602,1.3636,1.3687,1.3739,1.3777,1.3818,1.3855,1.3891,1.3938,1.3999,1.4019,1.4077,1.4128,1.4208,1.424,1.4286,1.4285,1.4298,1.4301,1.4304,1.4303,1.4237,1.4297,1.4297,1.4297,1.4297,1.4297,0,1.3648,1.3682,1.373,1.3792,1.3833,1.3844,1.3894,1.3928,1.3978,1.4024,1.407,1.4134,1.4188,1.4234,1.429,1.4318,1.4327,1.4331,1.4329,1.4336,1.4301,1.4287,1.4323,1.4323,1.4323,1.4323,1.4323,1.4323,1.3676,1.3734,1.3757,1.3834,1.3868,1.3924,1.3952,1.399,1.4027,1.4097,1.4142,1.4172,1.4218,1.4278,1.4328,1.434,1.4359,1.4362,1.4376,1.4342,1.4339,1.4336,1.4323,1.4366,1.4366,1.4408,1.4408,1.4408]},{"header":{"parameterUnit":"m.s-1","parameterCategory":1,"la1":30.2991,"la2":30.254,"lo1":-89.0895,"lo2":-89.0444,"dy":0.0017,"dx":0.0017,"nx":28,"ny":28,"refTime":"2023-08-16T21:00:00:Z","depth":0,"parameterNumber":3,"parameterNumberName":"V-component_of_WINDS"},"data":[0,0,0,0,0,0,0,0,0,0,0,0,0,0,0,0,0,0,0,0,0,0,0,0,0,0,0,0,0,0,0,0,0,0,0,0,0,0,0,0,0,0,0,0,0,0,0,0,0,0,0,0,0,0,0,0,0,0,1.9366,1.9365,0,1.9307,1.9306,1.9305,1.9279,1.9279,1.9279,1.9279,1.9216,1.9214,1.9212,0,0,0,0,0,0,0,0,0,0,0,0,0,1.9451,1.945,1.9366,1.9365,1.9365,1.9307,1.9306,1.9305,1.9279,1.9279,1.9279,1.9279,1.9216,1.9214,1.9212,0,0,0,0,0,0,0,0,0,0,0,0,0,1.9405,1.945,1.9366,1.9345,1.9342,1.9307,1.9306,1.9305,1.9279,1.9279,1.9279,1.9279,1.9217,1.9215,1.9212,1.9193,0,0,1.9204,1.9203,0,0,0,0,0,0,0,0,1.9408,1.9402,1.9348,1.9346,1.9343,1.93,1.9313,1.9267,1.9279,1.9303,1.9279,1.9279,1.9244,1.9239,1.9227,1.919,1.9188,1.9204,1.9202,1.9201,1.92,0,0,0,0,0,0,0,1.9411,1.9405,1.9342,1.9348,1.9344,1.9336,1.933,1.9304,1.9273,1.9301,1.9299,1.9292,1.9242,1.923,1.9226,1.9187,1.9204,1.9201,1.92,1.9199,1.9127,1.9126,0,0,0,0,0,0,1.9419,1.9408,1.9344,1.9341,1.9377,1.9335,1.9327,1.9314,1.9273,1.9267,1.9292,1.9291,1.9235,1.9229,1.9223,1.9196,1.9201,1.9198,1.9197,1.9127,1.9127,1.9126,0,0,0,0,0,0,1.9421,1.9413,1.9347,1.9374,1.9364,1.9333,1.9318,1.9313,1.9301,1.9267,1.9261,1.9286,1.9234,1.9227,1.92,1.9194,1.9197,1.9195,1.9127,1.9127,1.9127,1.9143,0,0,0,0,0,0,1.9423,1.9414,1.9408,1.9374,1.9363,1.9326,1.9318,1.9311,1.9296,1.9295,1.9259,1.9254,1.9234,1.9204,1.9198,1.919,1.9193,1.9128,1.9127,1.9127,1.9143,1.9144,1.9144,0,0,0,0,0,1.9426,1.9415,1.9408,1.94,1.9355,1.9326,1.932,1.9298,1.9296,1.9289,1.9266,1.9255,1.9196,1.9202,1.9194,1.9186,1.9128,1.9127,1.9127,1.9143,1.9144,1.9144,0,0,0,0,0,0,1.945,1.9411,1.9402,1.938,1.9356,1.9322,1.9312,1.93,1.9276,1.9275,1.9248,1.9241,1.9215,1.9198,1.9205,1.9163,1.9161,1.9158,1.9176,1.9176,1.9176,1.918,1.9191,0,0,0,0,0,1.9453,1.9433,1.94,1.9383,1.9372,1.9344,1.933,1.9316,1.929,1.928,1.9256,1.923,1.9205,1.919,1.9166,1.9141,1.9131,1.9131,1.9131,1.9131,1.9129,1.9111,1.911,1.9124,1.9124,1.9124,0,0,1.9458,1.9434,1.9424,1.9387,1.9368,1.9346,1.9336,1.9315,1.9298,1.9276,1.9249,1.923,1.9199,1.9173,1.916,1.9157,1.9123,1.913,1.9131,1.9129,1.911,1.9109,1.9108,1.9123,1.9124,1.9124,0,0,1.9456,1.9437,1.942,1.94,1.937,1.9351,1.9347,1.9313,1.93,1.9272,1.9254,1.9233,1.9192,1.917,1.9153,1.914,1.9127,1.9133,1.9134,1.9117,1.9115,1.9114,1.9107,1.9105,1.9131,1.9131,1.9131,0,1.9466,1.9435,1.9413,1.9392,1.9375,1.9354,1.9335,1.9316,1.928,1.9268,1.9266,1.9211,1.919,1.9156,1.9152,1.914,1.9132,1.9136,1.9118,1.9116,1.9115,1.9107,1.9105,1.9132,1.9132,1.9132,1.9132,0,1.9448,1.9426,1.9415,1.938,1.9362,1.9343,1.9315,1.9299,1.9285,1.9266,1.9236,1.9208,1.9177,1.9168,1.9154,1.9131,1.913,1.9123,1.912,1.9115,1.9107,1.9104,1.9133,1.9133,1.9132,1.9132,0,0,1.9461,1.9412,1.9408,1.939,1.9354,1.9336,1.9314,1.9283,1.9268,1.9243,1.9222,1.9186,1.9179,1.916,1.9143,1.9128,1.9116,1.9123,1.9122,1.9121,1.9084,1.9088,1.9086,1.9107,1.9107,1.9106,1.9086,0,1.9453,1.9413,1.9391,1.936,1.9338,1.9316,1.9296,1.927,1.9251,1.9228,1.9205,1.9179,1.9173,1.9161,1.9145,1.9121,1.9108,1.9122,1.9085,1.9084,1.9092,1.9082,1.9087,1.907,1.9083,1.9083,1.9083,0,1.9439,1.9413,1.938,1.9343,1.9333,1.9316,1.9284,1.9263,1.9232,1.9218,1.9196,1.9179,1.9151,1.915,1.9111,1.9121,1.9104,1.9089,1.9088,1.9083,1.9082,1.9075,1.9064,1.9061,1.9078,1.9078,1.9079,0,1.9449,1.9406,1.938,1.9366,1.9323,1.9311,1.9292,1.9261,1.9243,1.9215,1.9202,1.9171,1.9153,1.9128,1.9102,1.9104,1.9064,1.9061,1.9049,1.905,1.9041,1.9042,1.9026,1.9033,1.9033,1.9034,1.9034,0,1.9442,1.9422,1.9383,1.9367,1.9343,1.9316,1.9292,1.9271,1.9244,1.9221,1.92,1.9179,1.9147,1.912,1.91,1.9068,1.9061,1.9047,1.9042,1.9048,1.905,1.9036,1.9036,1.9033,1.9033,1.9033,1.9033,0,1.9449,1.9423,1.9392,1.9354,1.9343,1.9327,1.9292,1.9274,1.9253,1.9224,1.9216,1.9181,1.9149,1.912,1.9078,1.9064,1.9031,1.9025,1.9042,1.9038,1.9027,1.9028,1.9001,1.8994,1.9008,1.9008,1.9008,0,1.9446,1.943,1.9388,1.9372,1.9354,1.9328,1.9309,1.9281,1.9261,1.9223,1.9209,1.9175,1.9147,1.9096,1.9066,1.9032,1.9024,1.9017,1.9019,1.9025,1.9021,1.9022,1.9018,1.9017,1.9017,1.9017,1.9017,0,1.9442,1.9429,1.9403,1.9371,1.9349,1.9322,1.9295,1.9282,1.9249,1.9227,1.9195,1.9172,1.9128,1.9094,1.9056,1.9035,1.9019,1.9016,1.9011,1.9017,1.9026,1.9019,1.904,1.9017,1.9017,1.9017,1.9017,1.9017,1.9442,1.9425,1.9393,1.9363,1.934,1.9314,1.9294,1.927,1.9242,1.9204,1.9189,1.9154,1.912,1.9068,1.9046,1.9017,1.9014,1.9008,1.9006,1.9004,1.9004,1.9032,1.901,1.901,1.901,1.901,1.901,0,1.9435,1.9412,1.9386,1.9348,1.9324,1.9312,1.928,1.926,1.923,1.92,1.9172,1.9132,1.9098,1.9064,1.9028,1.901,1.9002,1.9002,1.9002,1.8996,1.901,1.9017,1.9009,1.9009,1.9009,1.9009,1.9009,1.9009,1.9428,1.9399,1.9381,1.9338,1.9315,1.9282,1.9264,1.9239,1.9215,1.9171,1.9143,1.9121,1.9088,1.9049,1.9016,1.9006,1.8993,1.8994,1.8982,1.8995,1.8996,1.8996,1.9002,1.8991,1.8991,1.897,1.897,1.897]}]]